www.pogodaiklimat.ru

Погода и климат >> Архив погоды >> Бельгия >> Spa


ПОГОДА в Spa

  • Прогноз погоды в Spa
  • Монитор погоды в Spa
  • Климат города

АРХИВ ПОГОДЫ в Spa

Время (UTC), дата Ветер
(напр.,м/с)
 
Видим.   Явления Облачность Т
(С)
Тd
(С)
f
(%)
Тe
(С)
Тes
(С)
Комфортность P
(гПа)
Po
(гПа)
Тmin
(С)
Tmax
(С)
R
(мм)
R24
(мм)
S
(см)
22 11.08 Ю 2
{2}
45 км ясно +11.6 +3.3 57 +11 +11 1022.7 966.3
23 11.08 Ю 2
{3}
50 км ясно +11.7 +4.2 60 +11 +11 1022.4 966.0
00 12.08 Ю 3
{5}
45 км ясно +11.1 +4.4 63 +9 +9 1022.0 965.5
02 12.08 Ю 4
{5}
50 км ясно +11.0 +4.9 66 +9 +9 1021.1 964.6
01 12.08 ЮВ 4
{5}
45 км ясно +11.0 +4.2 63 +9 +9 1021.5 965.1
03 12.08 ЮВ 5
{6}
45 км ясно +12.0 +5.5 64 +10 +10 1020.2 964.0
04 12.08 Ю 4
{6}
45 км ясно +12.2 +5.4 63 +10 +10 1019.5 963.4
05 12.08 ЮВ 5
{6}
45 км ясно +12.7 +5.6 62 +11 +11 1019.1 963.1
06 12.08 Ю 5
{7}
40 км ясно +13.7 +6.4 61 +12 +13 1018.7 962.9 +10.6
08 12.08 Ю 4
{7}
40 км ясно +17.6 +8.3 54 +17 +22 1017.6 962.7
07 12.08 Ю 4
{7}
45 км ясно +15.4 +7.8 60 +15 +17 1018.2 962.8
09 12.08 Ю 5
{8}
35 км ясно +18.5 +8.1 51 +18 +24 1017.3 962.5
10 12.08 ЮЗ 4
{7}
40 км ясно +19.9 +8.0 46 +21 +29 комфорт 1016.5 962.0
11 12.08 ЮЗ 3
{7}
40 км ясно +21.1 +7.1 40 +22 +34 комфорт 1015.8 961.5
12 12.08 ЮЗ 4
{8}
40 км ясно +21.7 +6.8 38 +22 +32 комфорт 1014.9 960.8
14 12.08 Ю 4
{10}
30 км ясно +23.4 +7.2 35 +24 +31 комфорт 1013.2 959.5
13 12.08 ЮЗ 4
{10}
30 км ясно +23.0 +7.8 38 +24 +33 комфорт 1013.9 960.1
15 12.08 Ю 4
{10}
40 км ясно +23.1 +5.8 33 +24 +29 комфорт 1012.5 958.7
16 12.08 Ю 4
{7}
40 км ясно +23.0 +5.8 33 +23 +26 комфорт 1012.1 958.3
17 12.08 Ю 3
{7}
35 км ясно +23.6 +5.6 31 +24 +25 комфорт 1011.1 957.5
18 12.08 Ю 3
{10}
40 км ясно +23.0 +5.6 32 +23 +24 комфорт 1010.7 957.0 +24.3
20 12.08 ЮВ 3
{4}
45 км ясно +17.1 +4.2 42 +17 +17 1011.5 956.7
19 12.08 Ю 2
{5}
35 км ясно +19.3 +4.1 37 +20 +20 1011.3 956.9
21 12.08 Ю 4
{5}
45 км ясно +18.4 +5.6 43 +18 +18 1010.5 956.0
22 12.08 ЮВ 5
{6}
50 км ясно +18.5 +6.2 45 +18 +18 1010.1 955.7
23 12.08 ЮВ 6
{8}
45 км ясно +19.1 +6.8 45 +19 +19 1009.3 955.0
00 13.08 ЮВ 6
{8}
45 км ясно +18.3 +6.5 46 +18 +18 1008.9 954.5
02 13.08 ЮВ 6
{8}
45 км ясно +18.4 +6.9 47 +18 +18 1007.5 953.2
01 13.08 ЮВ 6
{8}
50 км ясно +18.2 +6.8 47 +18 +18 1008.1 953.7
03 13.08 нст 1
{8}
35 км слаб. морось 9/9 1500 м
[]
+15.5 +8.6 63 +16 +16 1008.2 953.4
04 13.08 З 3
{5}
40 км слаб. дождь {морось} 10/10 1500 м
[]
+15.1 +8.9 66 +14 +14 1009.2 954.3
05 13.08 ЮВ 4
{6}
10 км сильн. дождь 10/10 1500 м
[]
+14.5 +9.4 71 +13 +13 1008.2 953.2
06 13.08 ЮВ 6
{8}
45 км {дождь, морось} 8/8 1500 м
[]
+14.7 +11.1 79 +13 +13 1007.3 952.4 +14.0 3
08 13.08 Ю 4
{10}
30 км 10/10 930 м
[]
+15.3 +13.7 90 +14 +14 1008.3 953.5
07 13.08 Ю 5
{8}
40 км 5/5 1500 м
[]
+14.7 +11.3 80 +13 +14 1008.2 953.3
09 13.08 Ю 4
{10}
30 км 10/10 180 м
[]
+16.0 +12.8 81 +15 +15 1008.0 953.4
10 13.08 Ю 4
{8}
35 км 9/9 240 м
[]
+17.3 +14.5 84 +17 +18 1007.7 953.4
11 13.08 ЮЗ 5
{8}
5000 м слаб. дождь 9/9 30 м
[]
+15.7 +13.2 85 +14 +15 1008.1 953.4
12 13.08 ЮЗ 6
{10}
5000 м дождь 10/10 30 м
[]
+15.0 +12.6 86 +13 +13 1008.7 953.8 6
14 13.08 З 5
{10}
10 км дождь 9/9 60 м
[]
+15.1 +13.7 91 +14 +14 1008.7 953.9
13 13.08 ЮЗ 6
{11}
35 км 9/9 330 м
[]
+16.7 +14.5 87 +16 +16 1008.1 953.6
15 13.08 З 3
{11}
35 км 9/9 300 м
[]
+16.6 +13.7 83 +16 +17 1008.2 953.7
16 13.08 ЮЗ 3
{7}
14 км слаб. дождь ?/? +15.6 +12.7 83 +15 +15 1008.8 954.0
17 13.08 З 4
{7}
45 км {дождь} 1/1 1110 м
[]
+16.0 +13.3 84 +15 +16 1008.7 954.0
18 13.08 ЮЗ 3
{11}
40 км {дождь} ясно +15.7 +13.0 84 +15 +15 1009.0 954.2 +17.8 11
20 13.08 ЮЗ 3
{6}
35 км 9/9 420 м
[]
+14.9 +11.7 81 +14 +14 1010.2 955.2
19 13.08 ЮЗ 3
{5}
40 км 4/4 570 м
[]
+15.3 +14.1 93 +15 +15 1009.4 954.5
21 13.08 ЮЗ 3
{6}
35 км 10/10 500 м
[]
+15.0 +13.4 90 +14 +14 1010.3 955.4
22 13.08 З 5
{7}
7000 м слаб. дождь {морось} 10/10 90 м
[]
+14.5 +12.8 90 +13 +13 1010.9 955.8
23 13.08 З 4
{7}
н/о 10/10 90 м
[]
+14.5 +13.1 91 +13 +13 1011.4 956.3
00 14.08 З 4
{7}
н/о 10/10 120 м
[]
+14.2 +12.8 91 +13 +13 1012.0 956.7 1
02 14.08 З 3
{6}
9000 м 10/10 120 м
[]
+13.7 +12.2 91 +12 +12 1012.3 957.0
01 14.08 ЮЗ 3
{6}
11 км 10/10 240 м
[]
+13.9 +12.6 92 +13 +13 1012.1 956.8
03 14.08 З 3
{7}
3500 м дымка 10/10 30 м
[]
+13.4 +12.3 93 +12 +12 1012.7 957.2
04 14.08 З 3
{6}
3700 м дымка 10/10 60 м
[]
+13.4 +12.2 92 +12 +12 1012.9 957.4
05 14.08 ЮЗ 4
{5}
1100 м дымка 10/10 30 м
[]
+13.5 +12.3 92 +12 +12 1013.3 957.9
06 14.08 З 3
{7}
н/о 10/10 30 м
[]
+13.4 +12.3 93 +12 +12 1014.0 958.5 +13.3 1
08 14.08 З 4
{7}
3100 м в посл. час туман {дождь, морось} 10/10 30 м
[]
+14.3 +14.3 100 +13 +13 1015.2 959.8
07 14.08 З 3
{7}
500 м туман 10/10 30 м
[]
+13.7 +12.6 93 +12 +12 1014.7 959.2
09 14.08 З 3
{7}
3700 м дымка {морось, туман} 10/10 60 м
[]
+14.7 +13.6 93 +14 +14 1015.7 960.4
10 14.08 З 3
{6}
4700 м дымка 10/10 90 м
[]
+15.3 +13.9 91 +15 +15 1016.0 960.8
11 14.08 З 3
{6}
н/о 10/10 150 м
[]
+16.2 +13.7 85 +16 +16 1016.2 961.2
12 14.08 З 3
{7}
н/о 10/10 270 м
[]
+17.8 +15.5 86 +18 +18 1016.2 961.5 0.3
14 14.08 З 3
{6}
13 км 10/10 630 м
[]
+17.8 +13.6 76 +18 +18 1016.8 962.0
13 14.08 З 4
{7}
15 км 9/9 500 м
[]
+18.3 +14.3 77 +19 +19 1016.3 961.6
15 14.08 С 3
{7}
н/о 10/10 180 м
[]
+16.5 +14.4 87 +16 +16 1017.5 962.4
16 14.08 З 1
{4}
н/о 10/10 1470 м
[]
+16.9 +13.7 81 +18 +18 1017.6 962.6
17 14.08 З 2
{4}
10 км слаб. дождь {дымка} 10/10 500 м
[]
+17.4 +14.1 81 +18 +18 1017.6 962.7
18 14.08 СЗ 2
{7}
12 км {морось, дымка} 9/9 630 м
[]
+17.5 +14.3 81 +18 +18 1017.6 962.7 +18.6 0.3
20 14.08 СЗ 1
{2}
18 км 10/10 660 м
[]
+16.6 +13.4 81 +17 +17 1018.9 963.8
19 14.08 СЗ 1
{4}
10 км 10/10 630 м
[]
+16.9 +13.6 81 +18 +18 1018.2 963.2
21 14.08 ЮЗ 1
{4}
21 км 9/9 600 м
[]
+15.4 +12.5 83 +16 +16 1019.3 963.9
22 14.08 З 1
{3}
20 км 10/10 600 м
[]
+15.4 +12.3 82 +16 +16 1019.7 964.3
23 14.08 ЮЗ 2
{2}
22 км 10/10 750 м
[]
+15.1 +12.1 82 +15 +15 1020.0 964.5
00 15.08 Ю 2
{4}
17 км 1/1 1260 м
[]
+14.0 +11.1 83 +13 +13 1020.0 964.3
02 15.08 ЮЗ 2
{4}
20 км 10/10 1050 м
[]
+14.0 +13.2 95 +13 +13 1019.8 964.2
01 15.08 ЮЗ 3
{4}
25 км 9/9 1080 м
[]
+14.2 +11.0 81 +13 +13 1020.0 964.3
03 15.08 ЮЗ 2
{4}
13 км ясно +13.1 +11.9 92 +12 +12 1019.8 964.0
04 15.08 ЮЗ 2
{3}
20 км ясно +12.9 +9.4 79 +12 +12 1020.1 964.1
05 15.08 Ю 3
{4}
10 км ясно +12.2 +10.3 88 +11 +11 1020.2 964.1
06 15.08 ЮЗ 3
{4}
4200 м дымка 10/10 60 м
[]
+12.9 +12.9 100 +11 +11 1020.5 964.6 +12.0
08 15.08 ЮЗ 3
{5}
13 км 10/10 90 м
[]
+14.5 +13.4 93 +14 +14 1020.9 965.3
07 15.08 ЮЗ 2
{5}
15 км 10/10 120 м
[]
+14.2 +10.8 80 +14 +14 1020.5 964.8
09 15.08 ЮЗ 3
{5}
16 км 10/10 90 м
[]
+15.3 +12.6 84 +15 +15 1021.3 965.7
10 15.08 ЮЗ 3
{5}
24 км 10/10 180 м
[]
+16.2 +12.9 81 +16 +16 1021.1 965.8
11 15.08 ЮЗ 3
{7}
27 км 10/10 400 м
[]
+17.0 +12.4 74 +17 +17 1021.0 965.8
12 15.08 З 3
{7}
30 км 10/10 540 м
[]
+17.9 +13.0 73 +18 +18 1020.7 965.7
14 15.08 З 3
{6}
35 км 10/10 900 м
[]
+19.9 +13.1 65 +22 +22 комфорт 1019.8 965.2
13 15.08 З 2
{4}
35 км 10/10 800 м
[]
+19.1 +13.2 69 +21 +21 комфорт 1020.1 965.4
15 15.08 СЗ 2
{6}
35 км 10/10 930 м
[]
+19.3 +12.6 65 +21 +21 комфорт 1019.8 965.1
16 15.08 В 1
{4}
35 км 10/10 870 м
[]
+19.8 +13.0 65 +23 +23 комфорт 1019.5 964.9
17 15.08 З 3
{5}
40 км 9/9 800 м
[]
+20.0 +13.3 65 +22 +22 комфорт 1019.2 964.7
18 15.08 З 3
{6}
40 км 9/9 1020 м
[]
+18.9 +12.8 68 +20 +20 1019.4 964.7 +20.4
20 15.08 ЮЗ 1
{3}
40 км ясно +15.1 +10.4 73 +16 +16 1020.3 964.7
19 15.08 З 2
{5}
45 км ясно +17.3 +11.6 69 +18 +18 1019.7 964.6
21 15.08 Ю 2
{5}
27 км ясно +13.8 +9.8 77 +13 +13 1020.3 964.5
22 15.08 Ю 2
{3}
25 км ясно +13.6 +9.7 77 +13 +13 1020.3 964.5
23 15.08 Ю 2
{3}
21 км ясно +13.7 +10.1 79 +13 +13 1020.1 964.3
00 16.08 Ю 2
{5}
15 км ясно +12.8 +11.9 94 +12 +12 1020.0 964.1
02 16.08 Ю 3
{4}
16 км ясно +12.8 +11.7 93 +11 +11 1019.4 963.5
01 16.08 Ю 3
{3}
15 км ясно +13.0 +11.9 93 +12 +12 1019.7 963.8
03 16.08 Ю 3
{4}
15 км ясно +13.0 +11.5 91 +12 +12 1018.9 963.1
04 16.08 Ю 3
{5}
14 км ясно +12.9 +9.3 79 +12 +12 1018.5 962.6
05 16.08 Ю 4
{5}
12 км ясно +12.4 +10.5 88 +10 +10 1018.9 962.9
06 16.08 Ю 2
{5}
14 км ясно +13.7 +13.6 99 +13 +14 1018.5 962.8 +12.1
08 16.08 нст 1
{4}
21 км ясно +17.1 +12.8 76 +18 +26 1017.6 962.6
07 16.08 ЮЗ 2
{3}
19 км ясно +15.9 +12.1 78 +16 +19 1017.8 962.6
09 16.08 нст 1
{4}
26 км 4/4 570 м
[]
+18.7 +13.1 70 +21 +27 комфорт 1017.2 962.6
10 16.08 нст 3
{5}
27 км ясно +20.1 +13.5 66 +22 +33 комфорт 1016.5 962.2
11 16.08 ЮЗ 3
{6}
35 км 1/1 840 м
[]
+21.4 +13.1 59 +24 +34 комфорт 1015.9 961.7
12 16.08 ЮЗ 3
{6}
25 км ясно +22.8 +13.7 56 +26 +37 жарко 1015.3 961.5
14 16.08 ЮЗ 3
{6}
30 км ясно +25.3 +13.1 47 +27 +36 жарко 1014.0 960.7
13 16.08 Ю 3
{7}
28 км ясно +24.3 +13.7 52 +27 +37 жарко 1014.6 961.1
15 16.08 ЮЗ 2
{7}
30 км ясно +25.5 +13.2 46 +27 +34 жарко 1013.6 960.3
16 16.08 нст 2
{5}
30 км 3/3 1470 м
[]
+25.4 +12.8 46 +27 +30 жарко 1013.4 960.1
17 16.08 З 2
{5}
25 км 1/1 1500 м
[]
+25.0 +12.4 45 +27 +28 жарко 1013.1 959.8
18 16.08 СЗ 2
{7}
40 км ясно +23.7 +12.3 49 +26 +26 жарко 1013.2 959.6 +26.0
20 16.08 В 1
{2}
27 км ясно +18.7 +10.7 60 +20 +20 1014.5 959.9
19 16.08 С 1
{5}
29 км ясно +20.6 +11.6 56 +24 +24 комфорт 1014.0 959.8
21 16.08 В 1
{5}
22 км ясно +18.1 +11.0 63 +19 +19 1014.5 959.9
22 16.08 В 2
{3}
19 км ясно +18.3 +11.3 64 +19 +19 1014.4 959.8
23 16.08 ЮВ 1
{3}
18 км ясно +16.5 +10.8 69 +17 +17 1014.9 959.9
00 17.08 Ю 1
{5}
14 км ясно +15.5 +10.4 72 +16 +16 1014.6 959.5
02 17.08 СВ 4
{6}
2700 м дымка 10/10 90 м
[]
+14.8 +13.7 93 +14 +14 1014.9 959.7
01 17.08 З 2
{3}
9000 м ясно +14.9 +10.5 75 +15 +15 1015.2 959.9
03 17.08 С 3
{15}
н/о 10/10 120 м
[]
+14.2 +13.1 93 +13 +13 1016.0 960.6
04 17.08 С 2
{7}
300 м туман {дымка} 10/10 <50 м
[]
+14.3 +13.7 96 +14 +14 1015.8 960.4
05 17.08 В 2
{8}
4000 м в посл. час туман {дождь} 10/10 1050 м
[]
+14.3 +13.3 94 +14 +14 1016.8 961.4
06 17.08
{15}
н/о н/о +14.4 +13.9 97 1017.1 961.7 +13.7
08 17.08 С 2 н/о 10/10 30 м
[]
+14.5 +13.6 94 +14 +14 1017.9 962.4
07 17.08 н/о н/о
09 17.08 С 3
{4}
н/о 10/10 30 м
[]
+14.8 +13.6 93 +14 +14 1018.3 962.9
10 17.08 СЗ 3
{5}
200 м туман ?/? +14.0 +13.5 97 +13 +13 1019.2 963.6
11 17.08 С 2
{5}
1200 м сильн. морось {дождь, туман} 10/10 30 м
[]
+14.1 +13.4 96 +13 +13 1019.7 964.0
12 17.08 СЗ 3
{5}
400 м морось 10/10 30 м
[]
+14.1 +13.3 95 +13 +13 1020.1 964.4
14 17.08 С 3
{5}
25 км {туман} 5/5 840 м
[]
+16.4 +11.1 71 +16 +20 1019.9 964.6
13 17.08 СЗ 2
{5}
8000 м в посл. час туман {морось} 10/10 150 м
[]
+15.0 +13.1 88 +15 +15 1020.0 964.5
15 17.08 СЗ 2
{5}
23 км {морось, туман} 6/6 800 м
[]
+17.2 +11.3 68 +18 +20 1019.6 964.5
16 17.08 С 3
{6}
22 км ясно +17.8 +11.5 67 +18 +21 1019.3 964.4
17 17.08 С 3
{5}
28 км ясно +18.4 +10.7 61 +19 +20 1019.5 964.6
18 17.08 СВ 1
{6}
27 км {морось, туман} ясно +16.9 +9.8 63 +18 +18 1019.9 964.7 +18.6
20 17.08 ЮЗ 1
{2}
20 км ясно +13.3 +8.1 71 +14 +14 1021.6 965.6
19 17.08 штиль 0
{1}
25 км ясно +14.2 +8.9 70 +14 +14 1020.8 965.0
21 17.08 нст 1
{2}
19 км 6/6 1170 м
[]
+13.3 +8.6 73 +14 +14 1022.0 966.0
22 17.08 ЮЗ 1
{2}
14 км 1/1 1020 м
[]
+12.6 +8.7 77 +13 +13 1022.5 966.3
23 17.08 ЮВ 1
{2}
20 км 4/4 1230 м
[]
+12.4 +8.7 78 +12 +12 1022.7 966.5
00 18.08 В 1
{2}
21 км 1/1 1380 м
[]
+12.1 +8.6 79 +12 +12 1022.9 966.6
02 18.08 Ю 1
{2}
30 км 6/6 1110 м
[]
+11.3 +9.6 89 +11 +11 1023.3 966.9
01 18.08 В 2
{3}
28 км ясно +11.7 +8.2 79 +11 +11 1022.9 966.5
03 18.08 Ю 1
{4}
16 км ясно +10.0 +9.3 95 +9 +9 1023.5 966.8
04 18.08 Ю 1
{2}
16 км ясно +9.6 +8.3 92 +9 +9 1023.6 966.8
05 18.08 Ю 2
{3}
н/о ясно +9.8 +8.2 90 +8 +8 1023.5 966.7
06 18.08 Ю 4
{5}
15 км ясно +11.6 +10.1 91 +9 +10 1023.5 967.1 +9.4
08 18.08 Ю 1
{3}
30 км ясно +16.6 +12.4 76 +17 +25 1022.9 967.5
07 18.08 Ю 2
{4}
25 км ясно +14.1 +10.2 77 +14 +17 1023.4 967.5
09 18.08 ЮЗ 3
{5}
19 км ясно +16.7 +10.9 69 +16 +24 1023.4 968.0
10 18.08 З 3
{5}
28 км 8/8 800 м
[]
+17.0 +10.3 65 +17 +19 1023.4 968.0
11 18.08 СЗ 4
{6}
30 км 1/1 900 м
[]
+18.0 +10.4 61 +18 +26 1023.2 968.0
12 18.08 З 3
{6}
26 км ясно +19.2 +9.4 53 +20 +32 1022.8 967.8
14 18.08 нст 2
{7}
30 км ясно +20.6 +9.3 48 +23 +32 комфорт 1021.9 967.3
13 18.08 З 3
{7}
40 км ясно +20.0 +8.7 48 +21 +32 комфорт 1022.5 967.7
15 18.08 СЗ 4
{7}
30 км ясно +20.8 +9.0 47 +22 +27 комфорт 1021.7 967.1
16 18.08 СЗ 3
{6}
29 км ясно +20.6 +9.0 47 +22 +26 комфорт 1021.7 967.0
17 18.08 З 3
{6}
30 км ясно +20.0 +9.4 50 +22 +23 комфорт 1021.8 967.0
18 18.08 СЗ 2
{7}
35 км ясно +19.7 +9.3 51 +21 +22 комфорт 1021.9 967.1 +20.9
20 18.08 ЮЗ 1
{2}
30 км ясно +15.7 +8.1 61 +16 +16 1023.5 967.9
19 18.08 СЗ 2
{4}
30 км ясно +17.3 +8.4 56 +18 +18 1022.7 967.4
21 18.08 З 2
{4}
26 км ясно +15.1 +8.5 65 +15 +15 1023.8 968.0

 

Местоположение метеостанции Spa (Бельгия): широта 50.48 долгота 5.92 высота над уровнем моря 482 м.

В архиве по умолчанию представлена погода в Spa за последнюю неделю. Архивные данные за месяц целиком и за предыдущие месяцы, начиная с января 2011 года, Вы можете получить, выбрав интересующий диапазон дат из раскрывающегося списка и нажав кнопку "Ввод!".


*Определитесь, кто Вы:
робот инопланетянин человек

Внимание! Время в таблицах - всемирное. Для получения местного времени необходимо прибавить поправку, которая в Spa равна 1 ч.

Смотрите также архив погоды в соседних городах и на ближайших метеорологических станциях:

Погода в Mont-Rigi (Бельгия) (12 км)
Погода в Elsenborn (Бельгия) (18 км)
Погода в Aachen-Orsbach (Германия) (34 км)
Погода в Bierset (Бельгия) (38 км)
Погода в Maastricht (Нидерланды) (50 км)
Погода в Geilenkirchen (Германия) (55 км)
Погода в Humain (Бельгия) (57 км)
Погода в Diepenbeek (Бельгия) (59 км)
Погода в Saint Hubert (Бельгия) (62 км)
Погода в Noervenich (Германия) (66 км)

Пояснения к столбцам:

Ветер - указаны скорость ветра в м/с - средняя за 10 мин, порывы в срок и между сроками (в фигурных скобках) и направление, откуда дует ветер: С - северный, СВ - северо-восточный, В - восточный, ЮВ - юго-восточный, Ю - южный, ЮЗ - юго-западный, З - западный, СЗ - северо-западный.
Видимость - горизонтальная дальность видимости в метрах или километрах. При видимости от 1 до 10 км при отсутствии осадков обычно наблюдается дымка, при ухудшении видимости до 1 км и менее - туман. В сухую погоду видимость может ухудшаться дымом, пылью или мглою.
Явления - указаны атмосферные явления, наблюдавшиеся в срок или в последний час перед сроком; фигурными скобками обозначены явления, наблюдавшиеся между сроками (за 1-3 часа до срока); квадратными скобками обозначены град или гололедные отложения с указанием их диаметра в мм.
Облачность - указаны через наклонную черту общая и нижняя облачность в баллах и высота нижней границы облаков в метрах; квадратными скобками обозначены формы облаков: Ci - перистые, Cs - перисто-слоистые, Cc - перисто-кучевые, Ac - высококучевые, As - высокослоистые, Sc - слоисто-кучевые, Ns - слоисто-дождевые, Cu - кучевые, Cb - кучево-дождевые. Подробнее классификацию облаков см. в Атласе облаков (PDF).
T - Температура воздуха - температура, измеренная на высоте 2 м над землей.
Td - Температура точки росы - температура, при понижении до которой содержащийся в воздухе водяной пар достигнет насыщения.
f - Относительная влажность воздуха - влажноcть воздуха, измеренная на высоте 2 м над землей.
Te - Эффективная температура - температура, которую ощущает одетый по сезону человек в тени. Характеристика душности погоды. При расчете учитывается влияние влажности воздуха и скорости ветра на теплоощущения человека.
Tes - Эффективная температура на солнце - температура, которую ощущает человек, с поправкой на солнечный нагрев. Характеристика знойности погоды. Зависит от высоты солнца над горизонтом, облачности и скорости ветра. Ночью, в пасмурную погоду, а также при ветре 12 м/с и более поправка равна нулю.
P - Атмосферное давление - приведенное к уровню моря атмосферное давление.
Po - Атмосферное давление - измеренное на уровне метеостанции атмосферное давление.
Tmin - Минимальная температура - минимум температуры воздуха на высоте 2 м над землей.
Tmax - Максимальная температура - максимум температуры воздуха на высоте 2 м над землей.
R - Количество осадков - Количество выпавших осадков за период времени, мм. При наведении курсора мыши на число - период времени, за который выпало указанное количество осадков.
R24 - Количество осадков - Количество выпавших осадков за 24 часа, мм.
S - Снежный покров - Высота снежного покрова, см. При наведении курсора мыши на число - состояние снежного покрова и степень покрытия местности в баллах.